Home   Weather   Ann Arbor   Past weeks

Flag for USA Past Weather in Ann Arbor, Michigan, USA — Yesterday and Last 2 Weeks

Now
63 °F

Broken clouds.


Feels Like: 63 °F
Forecast: 56 / 66 °F
Wind: 8 mph from Southeast

Location: Ann Arbor Municipal Airport

Current Time: Oct 1, 2016 at 11:44:33 AM

Latest Report: Oct 1, 2016 at 10:57 AM


Visibility: 10 mi

Pressure: 30.05 "Hg

Humidity: 87%

Dew Point: 59 °F

Location of Ann ArborLocation

Past Weather in Ann Arbor — Graph

°F

Ann Arbor Temperature Yesterday

Maximum temperature yesterday: 62 °F (at 7:53 AM)
Minimum temperature yesterday: 58 °F (at 11:53 PM)
Average temperature yesterday: 60 °F

High & Low Weather Summary for the Past Weeks

 TemperatureHumidityPressure
High84 °F (Sep 22, 12:53 PM)100% (Sep 17, 6:53 AM)30.26 "Hg (Sep 17, 6:53 AM)
Low45 °F (Sep 25, 3:53 AM)27% (Sep 27, 3:53 PM)29.72 "Hg (Sep 27, 3:53 PM)
Average63 °F82%30.04 "Hg
* Reported Sep 16 9:53 AM — Oct 1 9:53 AM, Ann Arbor, Weather by CustomWeather, © 2016

Note: Actual official high and low records may vary slightly from our data, if they occured in-between our weather recording intervals... More about our weather records

Advertising

Ann Arbor Weather History for the Previous 24 Hours

Scroll right to see more
 ConditionsComfort  
Time TempWeatherWind HumidityBarometerVisibility
9:53 AM
Sat, Oct 1
61 °FMostly cloudy.6 mph97%30.05 "Hg10 mi
8:53 AM60 °FMostly cloudy.7 mph100%30.05 "Hg8 mi
7:53 AM59 °FFog.5 mph100%30.04 "Hg4 mi
6:53 AM58 °FLight rain. Fog.5 mph100%30.04 "Hg3 mi
5:53 AM57 °FFog.7 mph100%30.03 "Hg5 mi
4:53 AM57 °FLow clouds.8 mph100%30.04 "Hg10 mi
3:53 AM57 °FRain. Fog.7 mph100%30.05 "Hg3 mi
2:53 AM57 °FThunderstorms. Fog.6 mph100%30.06 "Hg2 mi
1:53 AM57 °FFog.6 mph100%30.07 "Hg5 mi
12:53 AM57 °FFog.10 mph100%30.08 "Hg6 mi
11:53 PM
Fri, Sep 30
58 °FFog.8 mph100%30.08 "Hg6 mi
10:53 PM60 °FMostly cloudy.13 mph96%30.08 "Hg10 mi
9:53 PM61 °FMostly cloudy.7 mph97%30.09 "Hg10 mi
8:53 PM61 °FOvercast.5 mph97%30.10 "Hg10 mi
7:53 PM60 °FLow clouds.6 mph100%30.10 "Hg10 mi
6:53 PM60 °FLight rain. Low clouds.10 mph96%30.06 "Hg9 mi
6:04 PM60 °FLight rain. Fog.7 mph96%30.10 "Hg2 mi
5:53 PM60 °FLight rain. Fog.10 mph96%30.08 "Hg5 mi
4:53 PM60 °FLow clouds.13 mph96%30.07 "Hg10 mi
3:53 PM60 °FLow clouds.10 mph96%30.10 "Hg10 mi
2:53 PM60 °FFog.9 mph100%30.12 "Hg2 mi
1:53 PM60 °FLight rain. Fog.7 mph100%30.14 "Hg4 mi
12:53 PM60 °FLow clouds.10 mph96%30.14 "Hg10 mi
11:59 AM61 °FFog.10 mph97%30.16 "Hg3 mi
Weather by CustomWeather, © 2016

See weather overviewHow to use our weather pages